Torna al catalogo

FLOCK 4H 10

AttivoScienzaSSO
NORAD 66713·PAYLOAD·🇺🇸 United States

Lanciato Nov 28, 2025 da Vandenberg Space Force Base

Loading…

Prossimi Passaggi (prossime 24 ore)

TLE

AggiornatoSource: CelesTrak SupGP

Epoca: Sep 14, 2026, 12:45 UTC

1 66713C 25276AZ  26257.53136574  .00010758  00000+0  48893-3 0  2573
2 66713  97.4119 329.5509 0005747  64.2308 298.7067 15.20806156    19

Traccia FLOCK 4H 10 in tempo reale con AllMySat

Download on the App Store